Regional Weather Roundup
Issued by NWS Little Rock, AR

Home | Current Version | Previous Version | Text Only | Print | Product List | Glossary On
Versions: 1 2 3 4 5 6 7 8 9 10 11 12 13 14 15 16 17 18 19 20 21 22 23 24 25 26 27 28 29 30 31 32 33 34 35 36 37 38 39 40 41 42 43 44 45 46 47 48 49 50
000
ASUS44 KLZK 252005
RWRLZK

WEATHER ROUNDUP FOR ARKANSAS
NATIONAL WEATHER SERVICE LITTLE ROCK AR
200 PM CST SUN JAN 25 2015

NOTE: "FAIR" INDICATES FEW OR NO CLOUDS BELOW 12,000 FEET WITH NO
SIGNIFICANT WEATHER AND/OR OBSTRUCTIONS TO VISIBILITY.

ARZ001-003-010-029-252100-
NORTHWEST ARKANSAS

CITY           SKY/WX    TMP DP  RH WIND       PRES   REMARKS
FAYETTEVILLE   CLOUDY    43  32  65 NW23G39   29.85R
FORT SMITH     CLOUDY    53  32  44 NW17G35   29.86R
HARRISON       CLOUDY    40  35  83 NW18G24   29.77R
BENTONVILLE    CLOUDY    43  30  61 NW14G21   29.86R
ROGERS         CLOUDY    41  31  67 NW23G32   29.84R
SILOAM SPGS    CLOUDY    45  28  53 NW28G35   29.88R
HIGHFILL       LGT RAIN  44  32  62 NW22G33   29.85R
SPRINGDALE     CLOUDY    43  32  65 NW20G38   29.85R
$$

ARZ004-005-016-252100-
NORTH CENTRAL ARKANSAS

CITY           SKY/WX    TMP DP  RH WIND       PRES   REMARKS
BATESVILLE     CLOUDY    52  37  58 W14G22    29.71R
FLIPPIN        CLOUDY    43  36  75 NW21G30   29.76R
MTN HOME       LGT RAIN  41  37  86 NW13G31   29.74R
$$

ARZ040-041-252100-
WEST CENTRAL ARKANSAS

CITY           SKY/WX    TMP DP  RH WIND       PRES   REMARKS
MENA           PTSUNNY   55  34  44 W20G31    29.85S
MOUNT IDA      CLOUDY    55  32  41 NW17G29   29.80R
$$

ARZ009-017-025-026-028-252100-
NORTHEAST ARKANSAS

CITY           SKY/WX    TMP DP  RH WIND       PRES   REMARKS
CORNING          N/A     46  43  87 W15       29.66R FOG
JONESBORO      CLOUDY    53  39  59 W22G30    29.66R
NEWPORT        CLOUDY    54  40  59 NW10G23   29.70R
WALNUT RIDGE   PTSUNNY   54  37  54 W14G21    29.65S
BLYTHEVILLE    CLOUDY    52  45  77 NW10      29.65S
$$

ARZ022-023-033-042-044-252100-
CENTRAL ARKANSAS

CITY           SKY/WX    TMP DP  RH WIND       PRES   REMARKS
LITTLE ROCK    CLOUDY    58  32  37 W23G33    29.76R
N LITTLE ROCK  CLOUDY    55  38  52 W12G30    29.76R
JACKSONVILLE   PTSUNNY   59  36  41 W28G33    29.72S
SEARCY         CLOUDY    56  34  43 W14G26    29.73R
HOT SPRINGS    CLOUDY    56  33  42 NW18G33   29.81R
RUSSELLVILLE   CLOUDY    52  35  52 W21G26    29.80R
CLINTON        CLOUDY    46  41  81 NW7G22    29.79R HAZE
$$

ARZ036-252100-
EAST ARKANSAS

CITY           SKY/WX    TMP DP  RH WIND       PRES   REMARKS
WEST MEMPHIS   CLOUDY    55  42  61 VRB7      29.66F
$$

ARZ050-053-066-070-073-252100-
SOUTHWEST ARKANSAS

CITY           SKY/WX    TMP DP  RH WIND       PRES   REMARKS
ARKADELPHIA    MOCLDY    62  35  36 W16       29.81R
CAMDEN         LGT RAIN  66  32  28 MISG      29.79F
TEXARKANA      LGT RAIN  62  33  33 W23G33    29.85F
EL DORADO      SUNNY     62  35  36 W21G31    29.82S
DE QUEEN       LGT RAIN  60  33  36 NW24G31   29.86S
$$

ARZ056-057-069-252100-
SOUTHEAST ARKANSAS

CITY           SKY/WX    TMP DP  RH WIND       PRES   REMARKS
PINE BLUFF     PTSUNNY   61  32  33 W20G35    29.75R
STUTTGART      CLOUDY    61  37  41 W20G25    29.73S
MONTICELLO     MOSUNNY   60  36  40 W21G28    29.77R

$$




USA.gov is the U.S. government's official web portal to all federal, state and local government web resources and services.